TimeEDT,TemperatureF,Dew PointF,Humidity,Sea Level PressureIn,VisibilityMPH,Wind Direction,Wind SpeedMPH,Gust SpeedMPH,PrecipitationIn,Events,Conditions,WindDirDegrees,DateUTC
12:51 AM,27.0,18.0,69,30.12,10.0,SW,4.6,-,N/A,,Scattered Clouds,220,2013-03-15 04:51:00
1:51 AM,26.1,18.0,71,30.10,10.0,SSW,4.6,-,N/A,,Scattered Clouds,210,2013-03-15 05:51:00
2:51 AM,26.1,19.0,75,30.09,10.0,SW,4.6,-,N/A,,Partly Cloudy,220,2013-03-15 06:51:00
3:51 AM,27.0,19.9,75,30.05,10.0,SW,5.8,-,N/A,,Overcast,230,2013-03-15 07:51:00
4:51 AM,28.0,19.9,72,30.03,10.0,SW,8.1,-,N/A,,Overcast,230,2013-03-15 08:51:00
5:51 AM,30.0,21.0,69,30.01,10.0,WSW,10.4,-,N/A,,Overcast,240,2013-03-15 09:51:00
6:51 AM,30.9,21.0,67,29.99,10.0,SW,13.8,-,N/A,,Overcast,230,2013-03-15 10:51:00
7:20 AM,30.2,21.2,69,29.95,10.0,SW,10.4,-,N/A,,Overcast,230,2013-03-15 11:20:00
7:51 AM,30.9,21.0,67,29.98,10.0,SW,9.2,-,N/A,,Overcast,230,2013-03-15 11:51:00
8:51 AM,32.0,21.9,66,29.98,10.0,SW,10.4,-,N/A,,Overcast,230,2013-03-15 12:51:00
9:51 AM,33.1,24.1,70,29.96,10.0,SW,11.5,-,N/A,,Overcast,220,2013-03-15 13:51:00
10:36 AM,35.6,24.8,65,29.90,10.0,WSW,16.1,23.0,N/A,,Overcast,240,2013-03-15 14:36:00
10:51 AM,37.0,26.1,65,29.94,10.0,WSW,13.8,21.9,N/A,,Overcast,240,2013-03-15 14:51:00
11:37 AM,39.2,26.6,61,29.89,10.0,West,17.3,23.0,N/A,,Overcast,260,2013-03-15 15:37:00
11:51 AM,39.9,27.0,60,29.93,10.0,WSW,18.4,21.9,N/A,,Overcast,240,2013-03-15 15:51:00
12:51 PM,39.9,28.0,63,29.91,10.0,WSW,13.8,24.2,N/A,,Overcast,250,2013-03-15 16:51:00
1:29 PM,41.0,28.4,61,29.86,10.0,WSW,18.4,24.2,N/A,,Overcast,250,2013-03-15 17:29:00
1:51 PM,41.0,28.9,62,29.90,10.0,WSW,18.4,24.2,N/A,,Overcast,250,2013-03-15 17:51:00
2:51 PM,41.0,28.9,62,29.87,10.0,West,15.0,-,N/A,,Overcast,270,2013-03-15 18:51:00
3:51 PM,42.1,30.0,62,29.86,10.0,West,12.7,-,N/A,,Overcast,270,2013-03-15 19:51:00
4:51 PM,42.1,30.0,62,29.86,10.0,West,10.4,19.6,N/A,,Overcast,280,2013-03-15 20:51:00
5:20 PM,42.8,30.2,61,29.83,10.0,West,10.4,-,N/A,,Overcast,280,2013-03-15 21:20:00
5:51 PM,42.1,30.9,65,29.85,10.0,WNW,10.4,-,N/A,,Overcast,290,2013-03-15 21:51:00
6:51 PM,39.9,32.0,73,29.86,8.0,NW,9.2,-,0.00,Rain,Light Rain,310,2013-03-15 22:51:00
7:25 PM,37.4,33.8,87,29.85,4.0,NNW,11.5,-,0.00,Rain,Light Rain,330,2013-03-15 23:25:00
7:43 PM,35.6,33.8,93,29.86,4.0,NW,9.2,-,0.01,Rain,Light Rain,320,2013-03-15 23:43:00
7:51 PM,36.0,34.0,93,29.89,4.0,NW,6.9,-,0.01,Rain,Light Rain,320,2013-03-15 23:51:00
8:00 PM,35.6,33.8,93,29.86,3.0,NW,8.1,-,0.01,Rain,Light Rain,320,2013-03-16 00:00:00
8:15 PM,35.6,33.8,93,29.86,3.0,NNW,8.1,-,0.01,Rain,Light Rain,330,2013-03-16 00:15:00
8:42 PM,33.8,33.8,100,29.86,2.5,NNW,4.6,-,0.01,Rain-Snow,Light Rain,330,2013-03-16 00:42:00
8:51 PM,34.0,32.0,92,29.90,2.5,NNW,4.6,-,0.01,Snow,Light Snow,330,2013-03-16 00:51:00
8:59 PM,33.8,32.0,93,29.87,1.5,NNW,5.8,-,0.01,Snow,Light Snow,330,2013-03-16 00:59:00
9:20 PM,33.8,32.0,93,29.87,1.0,NNW,4.6,-,0.03,Snow,Light Snow,330,2013-03-16 01:20:00
9:51 PM,33.1,32.0,96,29.90,0.8,Calm,Calm,-,0.05,Snow,Light Snow,0,2013-03-16 01:51:00
10:15 PM,33.8,32.0,93,29.86,1.0,Calm,Calm,-,0.01,Snow,Light Snow,0,2013-03-16 02:15:00
10:51 PM,33.1,32.0,96,29.90,1.0,Calm,Calm,-,0.02,Snow,Light Snow,0,2013-03-16 02:51:00
11:32 PM,33.8,32.0,93,29.86,0.8,Calm,Calm,-,0.02,Snow,Light Snow,0,2013-03-16 03:32:00
11:51 PM,33.1,32.0,96,29.88,0.8,Calm,Calm,-,0.03,Snow,Light Snow,0,2013-03-16 03:51:00